This is the latest recevied weather packets stored in our database for station/object N9EA. If no packets are shown the sender has not sent any weather packets the latest 10 day(s).
| Time | Temp. | Humidity | Pressure | Rain* | Wind** | Luminosity | Snow |
|---|---|---|---|---|---|---|---|
| 1778027271 | 12.78° C | 48% | 1008.5 hPa | 0 mm | - | 22 W/m² | - |
| 1778026968 | 12.78° C | 46% | 1008.4 hPa | 0 mm | - | 26 W/m² | - |
| 1778026663 | 13.33° C | 45% | 1008.4 hPa | 0 mm | - | 36 W/m² | - |
| 1778026361 | 13.33° C | 45% | 1008.4 hPa | 0 mm | - | 37 W/m² | - |
| 1778026058 | 13.33° C | 44% | 1008.3 hPa | 0 mm | - | 44 W/m² | - |
| 1778025755 | 13.89° C | 44% | 1008.6 hPa | 0 mm | - | 41 W/m² | - |
| 1778025452 | 13.89° C | 43% | 1008.2 hPa | 0 mm | - | 50 W/m² | - |
| 1778025150 | 13.89° C | 42% | 1008.4 hPa | 0 mm | - | 60 W/m² | - |
| 1778024847 | 13.89° C | 42% | 1008.2 hPa | 0 mm | - | 62 W/m² | - |
| 1778024545 | 13.89° C | 41% | 1008.2 hPa | 0 mm | - | 79 W/m² | - |
| 1778024240 | 13.89° C | 42% | 1008.3 hPa | 0 mm | - | 80 W/m² | - |
| 1778023939 | 13.89° C | 41% | 1008.1 hPa | 0 mm | - | 88 W/m² | - |
| 1778023636 | 13.89° C | 42% | 1008.1 hPa | 0 mm | - | 75 W/m² | - |
| 1778023333 | 13.89° C | 41% | 1008.2 hPa | 0 mm | - | 64 W/m² | - |
| 1778023030 | 13.89° C | 41% | 1008.3 hPa | 0 mm | - | 76 W/m² | - |
| 1778022729 | 13.89° C | 41% | 1008.3 hPa | 0 mm | - | 82 W/m² | - |
| 1778022427 | 13.89° C | 41% | 1008.3 hPa | 0 mm | - | 96 W/m² | - |
| 1778022123 | 13.89° C | 40% | 1008.4 hPa | 0 mm | - | 110 W/m² | - |
| 1778021819 | 13.89° C | 40% | 1008.5 hPa | 0 mm | - | 99 W/m² | - |
| 1778021516 | 14.44° C | 39% | 1008.5 hPa | 0 mm | - | 133 W/m² | - |
| 1778021211 | 13.89° C | 39% | 1008.7 hPa | 0 mm | - | 198 W/m² | - |
| 1778020910 | 13.89° C | 39% | 1008.8 hPa | 0 mm | - | 135 W/m² | - |
| 1778020607 | 13.89° C | 39% | 1008.9 hPa | 0 mm | - | 152 W/m² | - |
| 1778020302 | 13.89° C | 39% | 1008.8 hPa | 0 mm | - | 163 W/m² | - |
| 1778019999 | 13.89° C | 39% | 1008.7 hPa | 0 mm | - | 145 W/m² | - |
* Rain latest hour (hover to see other rain measurements)
** Current wind speed in m/s (hover to see current wind gust speed)